Home   Weather   Feira de Santana   Past weeks
Flag for Brazil

Past Weather in Feira de Santana, Bahia, Brazil — Yesterday and Last 2 Weeks

Now
77 °F

Passing clouds.


Feels Like: 78 °F
Forecast: 83 / 72 °F
Wind: 3 mph from West

Location: Salvador Aeroporto

Current Time: May 20, 2019 at 4:37:48 am

Latest Report: May 20, 2019 at 4:00 am


Visibility: N/A

Pressure: 29.92 "Hg

Humidity: 94%

Dew Point: 75 °F

Location of Feira de SantanaLocation

Past Weather in Feira de Santana — Graph

°F

Feira de Santana Temperature Yesterday

Maximum temperature yesterday: 86 °F (at 11:00 am)
Minimum temperature yesterday: 73 °F (at 6:00 am)
Average temperature yesterday: 81 °F

High & Low Weather Summary for the Past Weeks

 TemperatureHumidityPressure
High88 °F (May 5, 1:00 pm)100% (May 10, 8:25 pm)30.04 "Hg (May 10, 8:25 pm)
Low41 °F (May 10, 8:25 pm)66% (May 5, 10:00 am)29.83 "Hg (May 10, 3:00 pm)
Average81 °F83%29.94 "Hg
* Reported May 5 3:00 am — May 20 3:00 am, Feira de Santana. Weather by CustomWeather, © 2019

Note: Actual official high and low records may vary slightly from our data, if they occured in-between our weather recording intervals... More about our weather records

Advertising

Feira de Santana Weather History for the Previous 24 Hours

Scroll right to see more
 ConditionsComfort  
Time TempWeatherWind HumidityBarometerVisibility
3:00 am
Mon, May 20
77 °FScattered showers. Passing clouds.2 mph94%29.92 "HgN/A
2:00 am79 °FPassing clouds.No wind89%29.95 "HgN/A
1:00 am82 °FPassing clouds.5 mph79%29.95 "HgN/A
12:00 am82 °FPassing clouds.3 mph79%29.98 "HgN/A
11:00 pm
Sun, May 19
82 °FPassing clouds.5 mph79%29.98 "HgN/A
10:00 pm81 °FPassing clouds.3 mph84%29.98 "HgN/A
9:00 pm82 °FPassing clouds.5 mph79%29.98 "HgN/A
8:00 pm82 °FPartly cloudy.5 mph79%29.95 "HgN/A
7:00 pm81 °FPartly cloudy.3 mph84%29.95 "HgN/A
6:00 pm81 °FPartly cloudy.7 mph84%29.92 "HgN/A
5:00 pm81 °FScattered showers. Broken clouds.12 mph84%29.92 "HgN/A
4:00 pm82 °FScattered showers. Broken clouds.10 mph79%N/AN/A
3:00 pm84 °FScattered clouds.10 mph74%29.89 "HgN/A
2:00 pm84 °FScattered clouds.10 mph74%29.92 "HgN/A
1:00 pm84 °FScattered clouds.9 mph74%29.95 "HgN/A
12:00 pm84 °FScattered clouds.8 mph74%29.95 "HgN/A
11:00 am86 °FScattered clouds.2 mph70%29.98 "HgN/A
10:00 am84 °FScattered clouds.6 mph74%29.98 "HgN/A
9:00 am84 °FScattered clouds.5 mph74%29.98 "HgN/A
8:00 am82 °FPassing clouds.2 mph84%29.98 "HgN/A
7:00 am75 °FPassing clouds.2 mph94%29.95 "HgN/A
6:00 am73 °FPassing clouds.2 mph100%29.95 "HgN/A
5:00 am75 °FPassing clouds.2 mph94%29.92 "HgN/A
4:00 am75 °FPassing clouds.3 mph94%29.92 "HgN/A
Weather by CustomWeather, © 2019

See weather overview